Location: Casa Rossa
(45.2389°N, 12.2056°E)
Time: 23:56:26
(UTC+00:00)

Cosmos 405 Rocket - Pass Details

Date: 14 July 2020
Orbit: 489 x 554 km, 81.3° (Epoch: 14 August)

Event Time Altitude Azimuth Distance (km) Brightness Sun altitude
Exits shadow 00:52:19 56° 240° (WSW) 614 2.7 -19.7°
Maximum altitude 00:52:49 63° 282° (WNW) 573 2.7 -19.7°
Drops below altitude 10° 00:56:35 10° 4° (N) 1,724 6.4 -19.4°
Sets 00:58:42 0° 8° (N) 2,605 7.6 -19.2°
